www.pogodaiklimat.ru

Погода и климат >> Архив погоды >> Россия >> Чукотка >> Остров Врангеля


ПОГОДА на Острове Врангеля

АРХИВ ПОГОДЫ на Острове Врангеля

Время (UTC), дата Ветер
(напр.,м/с)
 
Видим.   Явления Облачность Т
(С)
Тd
(С)
f
(%)
Тe
(С)
Тes
(С)
Комфортность P
(гПа)
Po
(гПа)
Тmin
(С)
Tmax
(С)
R
(мм)
R24
(мм)
S
(см)
00 17.06 В 3
{5}
20 км 4/3 200 м
[St Ac trans Ci fib]
+0.8 -1.3 86 -4 +2 1018.5 1015.8
03 17.06 В 2
{4}
20 км 4/3 200 м
[St Ci fib]
+1.2 -1.3 83 -2 +3 1018.0 1015.3
06 17.06 В 2
{3}
20 км 3/0
[Ci fib]
+0.7 -1.6 85 -3 0 1017.0 1014.3 +1.6
09 17.06 В 1
{3}
20 км 3/0
[Ci fib]
+0.2 -1.7 87 -2 -1 1016.4 1013.7
12 17.06 В 1
{2}
20 км 4/3 300 м
[St Ci fib]
-1.5 -1.9 97 -4 -4 1016.0 1013.3
15 17.06 штиль 0
{1}
20 км 4/0
[Ci fib]
-0.8 -1.8 93 -2 -1 1014.6 1011.9
18 17.06 В 1
{1}
20 км 6/0
[Ac trans Ci fib]
+1.1 -1.3 84 -1 +2 1013.6 1010.9 -1.9 30
21 17.06 В 1
{2}
20 км 8/0
[Ac trans Ci fib]
+3.5 -0.6 75 +2 +8 1013.1 1010.5
00 18.06 В 2
{2}
20 км 8/0
[Ac trans Ci fib]
+3.3 -0.3 77 +1 +7 1012.5 1009.9
03 18.06 В 2
{3}
20 км 8/0
[Ac trans Ci fib]
+3.4 -0.8 74 +1 +5 1012.0 1009.4
06 18.06 В 2
{2}
20 км 6/0
[Ac trans Ci fib]
+3.2 -2.7 65 +1 +3 1011.6 1009.0 +5.6
09 18.06 В 2
{3}
20 км 8/0
[Ac trans Ci fib]
+2.0 -1.3 79 -1 -1 1011.9 1009.3
12 18.06 В 1
{2}
20 км 10/0
[Ac trans Ci fib]
+2.2 -0.4 83 +1 +1 1011.9 1009.3
15 18.06 штиль 0
{1}
20 км 9/0
[Ac trans Ci fib]
+1.8 -0.5 85 +1 +1 1012.1 1009.4
18 18.06 С 5
{7}
20 км 6/0
[Ac trans Ci fib]
+4.1 -0.9 70 -1 +1 1012.4 1009.8 +1.3 26
21 18.06 С 4
{9}
20 км 4/0
[Ac trans Ci fib]
+3.9 -1.9 66 -0 +4 1013.8 1011.2
00 19.06 СВ 8-10
{10}
20 км 4/3 300 м
[Sc Ac trans Ci fib]
+2.1 -0.6 82 -5 -3 1015.3 1012.7
03 19.06 СВ 6
{10}
20 км 8/6 300 м
[Sc Ac trans Ci fib]
+2.1 -1.0 80 -4 -3 1016.2 1013.6
06 19.06 В 4
{8}
20 км 9/8 300 м
[Sc Ac trans Ci fib]
+1.1 -1.3 84 -4 -4 1017.6 1014.9 +4.6
09 19.06 В 4
{7}
20 км 9/9 300 м
[Sc Ac trans]
-0.6 -1.8 92 -6 -6 1018.7 1016.0
12 19.06 СВ 3
{6}
20 км 10/10 300 м
[Sc]
-1.1 -2.9 88 -6 -6 1019.5 1016.8
15 19.06 СВ 3
{5}
20 км 9/9 300 м
[Sc]
-1.3 -3.1 88 -6 -6 1019.5 1016.8
18 19.06 В 3
{6}
20 км 9/9 300 м
[Sc Ci fib]
-0.8 -2.4 89 -6 -5 1020.2 1017.5 -1.4 19
21 19.06 В 4
{7}
20 км 8/6 300 м
[Cb cap Ci fib]
-1.3 -2.9 89 -7 -5 1020.9 1018.2
00 20.06 ЮВ 3
{6}
20 км {ливн. осадки} 10/10 300 м
[Cb cap]
-0.1 -2.3 85 -5 -5 1021.0 1018.3
03 20.06 Ю 2
{4}
20 км 9/9 300 м
[Cb cap]
+0.4 -2.0 84 -3 -2 1021.1 1018.4
06 20.06 ЮВ 2
{4}
20 км 10/10 600 м
[Sc]
-0.3 -2.2 87 -4 -4 1021.1 1018.4 +0.4 0.0
09 20.06 Ю 2
{3}
20 км 10/10 600 м
[Sc]
-1.0 -1.9 94 -5 -5 1021.3 1018.6
12 20.06 Ю 2
{4}
20 км 10/10 100 м
[Sc]
-1.7 -2.0 98 -6 -6 1021.6 1018.9
15 20.06 ЮЗ 3
{4}
200 м туман ?/? -1.5 -1.7 99 -7 -7 1021.0 1018.3
18 20.06 ЮЗ 3
{4}
200 м туман ?/? -2.0 -2.1 99 -7 -7 1021.3 1018.6 -2.0 16
21 20.06 Ю 3
{4}
200 м туман ?/? -1.1 -1.4 98 -6 -6 1021.6 1018.9 -2.1
00 21.06 ЮЗ 4
{5}
1000 м дымка {туман} 10/10 200 м
[Sc]
-0.8 -1.1 98 -7 -7 1021.4 1018.7
03 21.06 ЮЗ 3
{5}
20 км 10/10 200 м
[Sc]
0.0 -0.4 97 -5 -5 1020.9 1018.2
06 21.06 Ю 2
{5}
20 км 10/10 200 м
[Sc]
-0.3 -0.8 96 -4 -4 1020.5 1017.8 +0.1
09 21.06 Ю 2
{3}
200 м туман ?/? -1.2 -1.3 99 -5 -5 1020.6 1017.9
12 21.06 Ю 2
{3}
200 м туман [диам. гололёда 1 мм] ?/? -2.3 -2.5 99 -7 -7 1019.8 1017.1
15 21.06 З 1
{3}
500 м туман [диам. гололёда 2 мм] 9/8 300 м
[Sc Ac trans]
-2.5 -2.8 98 -5 -5 1018.9 1016.2
18 21.06 Ю 1
{2}
20 км {туман} 4/3 200 м
[St Ac trans Ci fib]
-1.8 -2.2 97 -4 -2 1018.6 1015.9 -2.9 13
21 21.06 Ю 2
{4}
20 км 4/3 200 м
[St Ci fib]
-0.6 -1.3 95 -5 +1 1018.2 1015.5
00 22.06 Ю 1
{6}
20 км 3/1 200 м
[St Ci fib]
+0.6 -0.6 92 -1 +9 1017.2 1014.5
03 22.06 Ю 2
{3}
20 км 1/1 200 м
[St]
+0.8 -0.3 92 -3 +4 1017.3 1014.6
06 22.06 В 1
{4}
20 км ясно +1.8 -0.4 85 0 +4 1016.9 1014.2 +2.2
09 22.06 Ю 1
{6}
20 км ясно +0.9 -0.7 89 -1 -0 1016.9 1014.2
12 22.06 штиль 0
{2}
20 км ясно +0.2 -0.7 94 -1 -1 1016.6 1013.9
15 22.06 штиль 0
{1}
20 км ясно +0.7 -0.8 90 -1 0 1016.5 1013.8
18 22.06 В 1
{4}
20 км ясно +2.5 -0.1 83 +1 +5 1016.0 1013.4 -0.7 10
21 22.06 В 3
{3}
20 км ясно +3.4 +1.2 85 -1 +6 1016.0 1013.4
00 23.06 В 2
{4}
20 км ясно +4.9 +0.3 72 +3 +13 опасность
простуды
1016.0 1013.4
03 23.06 В 1
{3}
20 км ясно +6.6 -4.2 46 +6 +15 опасность
простуды
1015.6 1013.0
06 23.06 В 2
{3}
20 км ясно +4.4 +0.8 77 +2 +5 1014.8 1012.2 +6.9
09 23.06 СВ 3
{4}
20 км ясно +3.8 +0.7 80 0 +1 1014.7 1012.1
12 23.06 СВ 2
{4}
20 км ясно +3.3 +0.3 81 0 +1 1014.3 1011.7
15 23.06 СВ 3
{4}
20 км 1/0
[Ci fib]
+3.8 +0.2 77 0 +1 1013.3 1010.7
18 23.06 В 3
{5}
20 км 1/0
[Ci fib]
+5.3 +0.6 72 +2 +5 1012.2 1009.6 +3.1 8
21 23.06 В 5
{7}
20 км 1/0
[Ci fib]
+4.0 +0.9 80 -1 +3 1011.6 1009.0

 

Местоположение метеостанции Остров Врангеля (Чукотка, Россия): широта 70.98 долгота -178.00 высота над уровнем моря 21 м.

В архиве по умолчанию представлена погода на Острове Врангеля за последнюю неделю. Архивные данные за месяц целиком и за предыдущие месяцы, начиная с января 2011 года, Вы можете получить, выбрав интересующий диапазон дат из раскрывающегося списка и нажав кнопку "Ввод!".


*Определитесь, кто Вы:
робот инопланетянин человек

Внимание! Время в таблицах - всемирное. Для получения местного времени необходимо прибавить поправку, которая на Острове Врангеля равна 12 ч.

Смотрите также архив погоды в соседних городах и на ближайших метеорологических станциях:

Погода на Мысе Шмидта (Чукотка, Россия) (238 км)
Погода на Мысе Биллингс (Чукотка, Россия) (265 км)
Погода в Паляваам-Глубокой (Чукотка, Россия) (364 км)
Погода на Мысе Ванкарем (Чукотка, Россия) (369 км)
Погода в Комсомольской (Чукотка, Россия) (404 км)
Погода в Майской (Чукотка, Россия) (423 км)
Погода в Валькаркае (Чукотка, Россия) (423 км)
Погода в 21 км (Чукотка, Россия) (444 км)
Погода в Певеке (Чукотка, Россия) (463 км)
Погода в Чауне (Чукотка, Россия) (489 км)

Пояснения к столбцам:

Ветер - указаны скорость ветра в м/с - средняя за 10 мин, порывы в срок и между сроками (в фигурных скобках) и направление, откуда дует ветер: С - северный, СВ - северо-восточный, В - восточный, ЮВ - юго-восточный, Ю - южный, ЮЗ - юго-западный, З - западный, СЗ - северо-западный.
Видимость - горизонтальная дальность видимости в метрах или километрах. При видимости от 1 до 10 км при отсутствии осадков обычно наблюдается дымка, при ухудшении видимости до 1 км и менее - туман. В сухую погоду видимость может ухудшаться дымом, пылью или мглою.
Явления - указаны атмосферные явления, наблюдавшиеся в срок или в последний час перед сроком; фигурными скобками обозначены явления, наблюдавшиеся между сроками (за 1-3 часа до срока); квадратными скобками обозначены град или гололедные отложения с указанием их диаметра в мм.
Облачность - указаны через наклонную черту общая и нижняя облачность в баллах и высота нижней границы облаков в метрах; квадратными скобками обозначены формы облаков: Ci - перистые, Cs - перисто-слоистые, Cc - перисто-кучевые, Ac - высококучевые, As - высокослоистые, Sc - слоисто-кучевые, Ns - слоисто-дождевые, Cu - кучевые, Cb - кучево-дождевые. Подробнее классификацию облаков см. в Атласе облаков (PDF).
T - Температура воздуха - температура, измеренная на высоте 2 м над землей.
Td - Температура точки росы - температура, при понижении до которой содержащийся в воздухе водяной пар достигнет насыщения.
f - Относительная влажность воздуха - влажноcть воздуха, измеренная на высоте 2 м над землей.
Te - Эффективная температура - температура, которую ощущает одетый по сезону человек в тени. Характеристика душности погоды. При расчете учитывается влияние влажности воздуха и скорости ветра на теплоощущения человека.
Tes - Эффективная температура на солнце - температура, которую ощущает человек, с поправкой на солнечный нагрев. Характеристика знойности погоды. Зависит от высоты солнца над горизонтом, облачности и скорости ветра. Ночью, в пасмурную погоду, а также при ветре 12 м/с и более поправка равна нулю.
P - Атмосферное давление - приведенное к уровню моря атмосферное давление.
Po - Атмосферное давление - измеренное на уровне метеостанции атмосферное давление.
Tmin - Минимальная температура - минимум температуры воздуха на высоте 2 м над землей.
Tmax - Максимальная температура - максимум температуры воздуха на высоте 2 м над землей.
R - Количество осадков - Количество выпавших осадков за период времени, мм. При наведении курсора мыши на число - период времени, за который выпало указанное количество осадков.
R24 - Количество осадков - Количество выпавших осадков за 24 часа, мм.
S - Снежный покров - Высота снежного покрова, см. При наведении курсора мыши на число - состояние снежного покрова и степень покрытия местности в баллах.